TimeCDT,TemperatureF,Dew PointF,Humidity,Sea Level PressureIn,VisibilityMPH,Wind Direction,Wind SpeedMPH,Gust SpeedMPH,PrecipitationIn,Events,Conditions,WindDirDegrees,DateUTC
12:13 AM,35.6,26.6,70,30.14,10.0,WNW,15.0,23.0,N/A,,Mostly Cloudy,290,2012-10-06 05:13:00
12:33 AM,35.6,26.6,70,30.14,10.0,WNW,11.5,18.4,N/A,,Overcast,290,2012-10-06 05:33:00
12:53 AM,35.6,26.6,70,30.14,10.0,WNW,12.7,21.9,N/A,,Overcast,300,2012-10-06 05:53:00
1:13 AM,35.6,26.6,70,30.14,10.0,WNW,12.7,21.9,N/A,,Overcast,290,2012-10-06 06:13:00
1:33 AM,35.6,26.6,70,30.14,10.0,WNW,16.1,21.9,N/A,,Overcast,290,2012-10-06 06:33:00
1:53 AM,35.6,26.6,70,30.15,10.0,WNW,12.7,20.7,N/A,,Overcast,290,2012-10-06 06:53:00
2:13 AM,35.6,26.6,70,30.15,10.0,WNW,12.7,19.6,N/A,,Overcast,290,2012-10-06 07:13:00
2:33 AM,35.6,26.6,70,30.15,10.0,WNW,12.7,18.4,N/A,,Overcast,290,2012-10-06 07:33:00
2:53 AM,35.6,26.6,70,30.15,10.0,West,10.4,-,N/A,,Overcast,280,2012-10-06 07:53:00
3:13 AM,35.6,28.4,75,30.15,10.0,WNW,8.1,-,N/A,,Overcast,290,2012-10-06 08:13:00
3:33 AM,35.6,28.4,75,30.14,10.0,West,11.5,16.1,N/A,,Overcast,280,2012-10-06 08:33:00
3:53 AM,35.6,28.4,75,30.14,10.0,WNW,11.5,-,N/A,,Overcast,290,2012-10-06 08:53:00
4:13 AM,35.6,28.4,75,30.15,7.0,WNW,10.4,-,N/A,,Overcast,300,2012-10-06 09:13:00
4:33 AM,33.8,30.2,87,30.16,4.0,WNW,10.4,16.1,N/A,,Drizzle,300,2012-10-06 09:33:00
4:53 AM,33.8,30.2,87,30.15,10.0,WNW,10.4,-,N/A,,Overcast,300,2012-10-06 09:53:00
5:13 AM,33.8,30.2,87,30.16,10.0,NW,8.1,-,N/A,,Overcast,310,2012-10-06 10:13:00
5:33 AM,35.6,30.2,81,30.17,10.0,NW,8.1,-,N/A,,Overcast,320,2012-10-06 10:33:00
5:53 AM,35.6,28.4,75,30.18,10.0,NNW,9.2,16.1,N/A,,Overcast,340,2012-10-06 10:53:00
6:13 AM,35.6,28.4,75,30.18,10.0,NNW,12.7,16.1,N/A,,Overcast,330,2012-10-06 11:13:00
6:33 AM,35.6,28.4,75,30.18,10.0,NW,11.5,19.6,N/A,,Overcast,310,2012-10-06 11:33:00
6:53 AM,35.6,28.4,75,30.19,10.0,NNW,10.4,-,N/A,,Overcast,330,2012-10-06 11:53:00
7:13 AM,35.6,28.4,75,30.20,10.0,NW,10.4,-,N/A,,Overcast,320,2012-10-06 12:13:00
7:33 AM,35.6,28.4,75,30.21,10.0,North,10.4,17.3,N/A,,Overcast,350,2012-10-06 12:33:00
7:53 AM,35.6,28.4,75,30.21,10.0,NNW,11.5,-,N/A,,Overcast,330,2012-10-06 12:53:00
8:13 AM,35.6,30.2,81,30.22,10.0,NNW,8.1,-,N/A,,Overcast,330,2012-10-06 13:13:00
8:33 AM,35.6,28.4,75,30.23,10.0,NNW,12.7,18.4,N/A,,Overcast,330,2012-10-06 13:33:00
8:53 AM,35.6,28.4,75,30.23,10.0,NW,10.4,-,N/A,,Mostly Cloudy,310,2012-10-06 13:53:00
9:13 AM,35.6,28.4,75,30.24,10.0,NNW,10.4,16.1,N/A,,Mostly Cloudy,330,2012-10-06 14:13:00
9:33 AM,37.4,28.4,70,30.25,10.0,NW,12.7,17.3,N/A,,Overcast,310,2012-10-06 14:33:00
9:53 AM,35.6,28.4,75,30.25,10.0,NNW,12.7,-,N/A,,Mostly Cloudy,330,2012-10-06 14:53:00
10:13 AM,37.4,28.4,70,30.26,10.0,NNW,11.5,-,N/A,,Scattered Clouds,340,2012-10-06 15:13:00
10:33 AM,39.2,26.6,61,30.26,10.0,NNW,13.8,17.3,N/A,,Scattered Clouds,340,2012-10-06 15:33:00
10:53 AM,37.4,26.6,65,30.26,10.0,NNW,15.0,-,N/A,,Mostly Cloudy,340,2012-10-06 15:53:00
11:14 AM,37.4,26.6,65,30.26,10.0,North,10.4,16.1,N/A,,Overcast,360,2012-10-06 16:14:00
11:33 AM,39.2,24.8,56,30.26,10.0,North,9.2,-,N/A,,Overcast,360,2012-10-06 16:33:00
11:53 AM,37.4,24.8,60,30.26,10.0,NNW,13.8,-,N/A,,Overcast,340,2012-10-06 16:53:00
12:14 PM,39.2,24.8,56,30.27,10.0,NNW,13.8,18.4,N/A,,Overcast,340,2012-10-06 17:14:00
12:33 PM,39.2,24.8,56,30.27,10.0,NNW,13.8,-,N/A,,Overcast,330,2012-10-06 17:33:00
12:53 PM,37.4,24.8,60,30.27,10.0,NNW,13.8,-,N/A,,Overcast,340,2012-10-06 17:53:00
1:14 PM,39.2,21.2,49,30.26,10.0,North,9.2,-,N/A,,Overcast,350,2012-10-06 18:14:00
1:33 PM,39.2,23.0,52,30.26,10.0,NNW,11.5,-,N/A,,Overcast,330,2012-10-06 18:33:00
1:53 PM,39.2,23.0,52,30.26,10.0,NNW,11.5,17.3,N/A,,Overcast,340,2012-10-06 18:53:00
2:14 PM,39.2,23.0,52,30.25,10.0,North,12.7,-,N/A,,Overcast,350,2012-10-06 19:14:00
2:33 PM,39.2,23.0,52,30.25,10.0,NW,9.2,-,N/A,,Overcast,320,2012-10-06 19:33:00
2:53 PM,39.2,23.0,52,30.25,10.0,NW,9.2,-,N/A,,Overcast,320,2012-10-06 19:53:00
3:14 PM,41.0,21.2,45,30.24,10.0,North,10.4,-,N/A,,Overcast,350,2012-10-06 20:14:00
3:33 PM,42.8,21.2,42,30.24,10.0,North,9.2,-,N/A,,Overcast,350,2012-10-06 20:33:00
3:53 PM,41.0,19.4,42,30.23,10.0,WNW,8.1,-,N/A,,Overcast,300,2012-10-06 20:53:00
4:13 PM,42.8,21.2,42,30.22,10.0,NW,8.1,-,N/A,,Overcast,310,2012-10-06 21:13:00
4:33 PM,41.0,21.2,45,30.22,10.0,NNW,6.9,-,N/A,,Overcast,340,2012-10-06 21:33:00
4:53 PM,41.0,21.2,45,30.22,10.0,North,6.9,-,N/A,,Overcast,350,2012-10-06 21:53:00
5:13 PM,41.0,21.2,45,30.22,10.0,NW,8.1,-,N/A,,Overcast,310,2012-10-06 22:13:00
5:33 PM,39.2,21.2,49,30.22,10.0,NW,6.9,-,N/A,,Overcast,320,2012-10-06 22:33:00
5:53 PM,41.0,21.2,45,30.22,10.0,NNW,5.8,-,N/A,,Overcast,330,2012-10-06 22:53:00
6:13 PM,41.0,21.2,45,30.22,10.0,North,5.8,-,N/A,,Overcast,360,2012-10-06 23:13:00
6:33 PM,39.2,21.2,49,30.23,10.0,North,6.9,-,N/A,,Overcast,350,2012-10-06 23:33:00
6:53 PM,39.2,21.2,49,30.23,10.0,North,4.6,-,N/A,,Overcast,10,2012-10-06 23:53:00
7:13 PM,39.2,21.2,49,30.23,10.0,Calm,Calm,-,N/A,,Overcast,0,2012-10-07 00:13:00
7:33 PM,39.2,23.0,52,30.23,10.0,Calm,Calm,-,N/A,,Unknown,0,2012-10-07 00:33:00
7:53 PM,39.2,23.0,52,30.24,10.0,Calm,Calm,-,N/A,,Unknown,0,2012-10-07 00:53:00
8:13 PM,37.4,24.8,60,30.24,10.0,Calm,Calm,-,N/A,,Unknown,0,2012-10-07 01:13:00
8:33 PM,37.4,24.8,60,30.24,10.0,West,3.5,-,N/A,,Unknown,270,2012-10-07 01:33:00
8:53 PM,37.4,23.0,56,30.24,10.0,West,3.5,-,N/A,,Unknown,270,2012-10-07 01:53:00
9:13 PM,37.4,23.0,56,30.24,10.0,West,3.5,-,N/A,,Unknown,260,2012-10-07 02:13:00
9:33 PM,37.4,24.8,60,30.24,10.0,West,3.5,-,N/A,,Unknown,270,2012-10-07 02:33:00
9:53 PM,37.4,24.8,60,30.24,10.0,Calm,Calm,-,N/A,,Unknown,0,2012-10-07 02:53:00
10:13 PM,37.4,24.8,60,30.24,10.0,Calm,Calm,-,N/A,,Unknown,0,2012-10-07 03:13:00
10:34 PM,37.4,23.0,56,30.24,10.0,WSW,3.5,-,N/A,,Overcast,250,2012-10-07 03:34:00
10:53 PM,35.6,24.8,65,30.24,10.0,Calm,Calm,-,N/A,,Unknown,0,2012-10-07 03:53:00
11:13 PM,35.6,23.0,60,30.24,10.0,Calm,Calm,-,N/A,,Clear,0,2012-10-07 04:13:00
11:34 PM,33.8,23.0,65,30.23,10.0,West,5.8,-,N/A,,Unknown,260,2012-10-07 04:34:00
11:53 PM,30.2,21.2,69,30.23,10.0,Calm,Calm,-,N/A,,Unknown,0,2012-10-07 04:53:00